Location: Betzi
(47.2343°N, 9.5260°E)
Time: 22:20:40
(UTC+00:00)

Cosmos 1606 Rocket - Pass Details

Date: 27 May 2022
Orbit: 601 x 632 km, 82.5° (Epoch: 29 June)

Event Time Altitude Azimuth Distance (km) Brightness Sun altitude
Rises 02:43:59 0° 343° (NNW) 2,916 7.4 -7.5°
Reaches altitude 10° 02:46:21 10° 335° (NNW) 1,999 6.4 -7.2°
Maximum altitude 02:50:24 36° 269° (W) 984 4.2 -6.6°
Drops below altitude 10° 02:54:23 10° 203° (SSW) 1,965 5.6 -6.1°
Enters shadow 02:56:05 - 196° (SSW) 2,622 6.3 -5.9°
